St. Cloud, MN

4:43 AM CDT on July 21, 2019 (GMT -0500)
Saint Cloud Regional

Weather History for KSTC - May, 2019

Change the Weather History Date:

Sunday, May 5, 2019

  Actual Average Record
Temperature  
Mean Temperature 52 °F 53 °F  
Max Temperature 61 °F 66 °F 91 °F (2000)
Min Temperature 42 °F 41 °F 25 °F (1967)
Degree Days  
Heating Degree Days 13 12  
Month to date heating degree days 91 65  
Since 1 July heating degree days 8889 8232  
Cooling Degree Days 0 0  
Month to date cooling degree days 0 0  
Year to date cooling degree days 0 2  
Growing Degree Days 1 (Base 50)    
Moisture  
Dew Point 34 °F    
Average Humidity 56    
Maximum Humidity 83    
Minimum Humidity 29    
Precipitation  
Precipitation 0.13 in 0.09 in 1.86 in (1912)
Month to date precipitation 0.51 0.48  
Year to date precipitation 7.86 5.84  
Snow  
Snow 0.00 in 0.00 in 0.30 in (1991)
Month to date snowfall 0.0 0.0  
Since 1 July snowfall 68.5 45.7  
Snow Depth 0.00 in    
Sea Level Pressure  
Sea Level Pressure 29.90 in    
Wind  
Wind Speed 7 mph (NNW)    
Max Wind Speed 14 mph    
Max Gust Speed 20 mph    
Visibility 9 miles    
Events Rain    
T = Trace of Precipitation, MM = Missing Value Source: NWS Daily Summary

Daily Weather History Graph

Daily Weather History Graph

Search for Another Location

Airport or City:

Astronomy

May. 05, 2019 Rise Set
Actual Time 5:58 AM CDT 8:28 PM CDT
Civil Twilight 5:25 AM CDT 9:01 PM CDT
Nautical Twilight 4:43 AM CDT 9:43 PM CDT
Astronomical Twilight 3:56 AM CDT 10:31 PM CDT
Moon 6:45 AM CDT (5/5) 9:21 PM CDT (5/5)
Length of Visible Light 15h 35m
Length of Day
14h 29m
New Moon, 1% of the Moon is Illuminated
May 5
New Moon
May 11
First Quarter
May 18
Full
May 26
Last Quarter
Jun 3
New

Hourly Weather History & Observations

Time (CDT) Temp. Windchill Dew Point Humidity Pressure Visibility Wind Dir Wind Speed Gust Speed Precip Events Conditions
12:53 AM 48.0 °F - 39.0 °F 71% 29.84 in 10.0 mi North 10.4 mph - N/A   Mostly Cloudy
1:53 AM 48.0 °F - 39.0 °F 71% 29.83 in 10.0 mi NNE 5.8 mph - N/A   Clear
2:53 AM 43.0 °F 40.3 °F 37.0 °F 80% 29.83 in 10.0 mi North 4.6 mph - N/A   Clear
3:53 AM 43.0 °F 39.5 °F 37.9 °F 82% 29.85 in 10.0 mi NNW 5.8 mph - N/A   Partly Cloudy
4:53 AM 44.1 °F 40.8 °F 39.0 °F 82% 29.86 in 10.0 mi North 5.8 mph - 0.00 in   Overcast
5:53 AM 43.0 °F 38.8 °F 39.0 °F 86% 29.86 in 10.0 mi North 6.9 mph - 0.01 in Rain Light Rain
6:53 AM 44.1 °F 40.8 °F 39.9 °F 85% 29.88 in 10.0 mi North 5.8 mph - 0.00 in   Mostly Cloudy
7:26 AM 42.1 °F 37.7 °F 37.9 °F 85% 29.85 in 2.5 mi NE 6.9 mph - 0.05 in Rain Rain
7:33 AM 42.1 °F 37.7 °F 37.9 °F 85% 29.86 in 8.0 mi North 6.9 mph - 0.05 in Rain Light Rain
7:53 AM 42.1 °F 38.4 °F 37.9 °F 85% 29.92 in 4.0 mi NW 5.8 mph - 0.08 in Rain Rain
8:53 AM 43.0 °F - 37.9 °F 82% 29.92 in 10.0 mi Calm Calm - 0.04 in   Mostly Cloudy
9:53 AM 46.9 °F - 39.9 °F 77% 29.93 in 10.0 mi NW 9.2 mph - N/A   Partly Cloudy
10:53 AM 50.0 °F - 34.0 °F 54% 29.91 in 10.0 mi North 8.1 mph - N/A   Mostly Cloudy
11:53 AM 55.0 °F - 33.1 °F 43% 29.90 in 10.0 mi North 8.1 mph - N/A   Partly Cloudy
12:53 PM 57.0 °F - 33.1 °F 40% 29.90 in 10.0 mi North 8.1 mph 19.6 mph N/A   Clear
1:53 PM 59.0 °F - 30.0 °F 33% 29.89 in 10.0 mi North 9.2 mph 17.3 mph N/A   Clear
2:53 PM 60.1 °F - 28.9 °F 31% 29.90 in 10.0 mi NNW 6.9 mph 17.3 mph N/A   Partly Cloudy
3:53 PM 59.0 °F - 28.0 °F 31% 29.89 in 10.0 mi NNW 8.1 mph - N/A   Partly Cloudy
4:53 PM 60.1 °F - 28.9 °F 31% 29.88 in 10.0 mi NW 9.2 mph - N/A   Clear
5:53 PM 57.9 °F - 28.9 °F 33% 29.90 in 10.0 mi NW 6.9 mph - N/A   Scattered Clouds
6:53 PM 57.0 °F - 28.0 °F 33% 29.91 in 10.0 mi NW 9.2 mph - N/A   Overcast
7:53 PM 54.0 °F - 32.0 °F 43% 29.91 in 10.0 mi NW 5.8 mph - N/A   Overcast
8:53 PM 53.1 °F - 28.9 °F 40% 29.93 in 10.0 mi NNW 6.9 mph - N/A   Mostly Cloudy
9:53 PM 50.0 °F - 30.0 °F 46% 29.96 in 10.0 mi NNW 6.9 mph - N/A   Clear
10:53 PM 50.0 °F - 28.0 °F 43% 30.00 in 10.0 mi NNW 9.2 mph - N/A   Overcast
11:53 PM 48.0 °F - 28.0 °F 46% 30.03 in 10.0 mi North 8.1 mph - N/A   Overcast